DW6996 Weather Reports


Display with metric or nautical units.
time (UTC)temp
F
wind
direction
speed
MPH
gust
MPH
rain 1hr
in
rain 24hr
in
rain mn
in
humidity
%
barometer
mb
20260906212357 104 260 0.0 8.0 0.00 0.00 0.00 22 1007.6
20260906211855 103 292 0.0 2.0 0.00 0.00 0.00 22 1007.6
20260906211354 104 263 0.0 4.0 0.00 0.00 0.00 22 1007.7
20260906210854 103 267 0.0 4.0 0.00 0.00 0.00 22 1008.0
20260906210353 103 176 0.0 2.0 0.00 0.00 0.00 23 1008.0
20260906205851 103 217 1.0 10.0 0.00 0.00 0.00 23 1008.1
20260906205350 103 220 1.0 10.0 0.00 0.00 0.00 23 1008.1
20260906204850 103 260 0.0 7.0 0.00 0.00 0.00 23 1008.1
20260906204350 103 256 0.0 7.0 0.00 0.00 0.00 23 1008.1
20260906203848 103 284 1.0 6.0 0.00 0.00 0.00 23 1008.1
20260906203347 103 223 0.0 5.0 0.00 0.00 0.00 23 1008.1
20260906202842 102 281 0.0 7.0 0.00 0.00 0.00 23 1008.1
20260906202338 102 241 0.0 7.0 0.00 0.00 0.00 23 1008.2
20260906201836 102 333 1.0 11.0 0.00 0.00 0.00 24 1008.3
20260906201335 102 256 1.0 11.0 0.00 0.00 0.00 23 1008.3
20260906201101 102 244 0.0 5.0 0.00 0.00 0.00 24 1008.2
20260906200334 102 271 0.0 5.0 0.00 0.00 0.00 24 1008.3
20260906195835 102 230 0.0 5.0 0.00 0.00 0.00 24 1008.5
20260906195335 102 190 0.0 7.0 0.00 0.00 0.00 24 1008.5
20260906194831 102 265 0.0 7.0 0.00 0.00 0.00 25 1008.6
20260906194331 102 273 0.0 3.0 0.00 0.00 0.00 24 1008.6
20260906193832 102 294 0.0 2.0 0.00 0.00 0.00 25 1008.6
20260906193332 102 238 0.0 3.0 0.00 0.00 0.00 25 1008.6
20260906192831 102 250 0.0 3.0 0.00 0.00 0.00 25 1008.7
20260906192332 101 253 0.0 7.0 0.00 0.00 0.00 25 1008.8
20260906191832 101 219 0.0 7.0 0.00 0.00 0.00 25 1008.9
20260906191552 100 244 0.0 2.0 0.00 0.00 0.00 26 1008.9
20260906190829 101 174 0.0 11.0 0.00 0.00 0.00 26 1009.0
20260906190329 101 276 0.0 11.0 0.00 0.00 0.00 25 1009.0
20260906185829 101 215 0.0 3.0 0.00 0.00 0.00 25 1009.1
20260906185330 100 238 0.0 3.0 0.00 0.00 0.00 27 1009.2
20260906184829 99 286 0.0 1.0 0.00 0.00 0.00 27 1009.3
20260906184329 99 283 0.0 0.0 0.00 0.00 0.00 27 1009.4
20260906183829 99 238 0.0 0.0 0.00 0.00 0.00 27 1009.4
20260906183328 99 227 0.0 0.0 0.00 0.00 0.00 27 1009.5
20260906183056 99 217 0.0 0.0 0.00 0.00 0.00 28 1009.6
20260906182328 98 221 0.0 0.0 0.00 0.00 0.00 28 1009.6
20260906181829 98 232 0.0 0.0 0.00 0.00 0.00 28 1009.7
20260906181550 97 274 0.0 0.0 0.00 0.00 0.00 29 1009.8
20260906180829 97 223 0.0 0.0 0.00 0.00 0.00 29 1009.9
20260906180328 97 247 0.0 1.0 0.00 0.00 0.00 29 1009.9
20260906175829 97 251 0.0 1.0 0.00 0.00 0.00 29 1009.9
20260906175331 97 242 0.0 0.0 0.00 0.00 0.00 30 1009.9
20260906175320 97 217 0.0 4.0 0.00 0.00 0.00 30 1010.0
20260906174329 97 166 0.0 4.0 0.00 0.00 0.00 30 1010.1
20260906173829 96 205 0.0 0.0 0.00 0.00 0.00 30 1010.1
20260906173329 96 198 0.0 0.0 0.00 0.00 0.00 30 1010.1
20260906172829 96 182 0.0 0.0 0.00 0.00 0.00 30 1010.2
20260906172556 96 231 0.0 0.0 0.00 0.00 0.00 31 1010.3
20260906172054 95 208 0.0 1.0 0.00 0.00 0.00 31 1010.3
20260906171329 95 190 0.0 1.0 0.00 0.00 0.00 31 1010.4
20260906170829 95 213 0.0 0.0 0.00 0.00 0.00 32 1010.4
20260906170811 94 154 0.0 0.0 0.00 0.00 0.00 32 1010.4
20260906165829 94 228 0.0 0.0 0.00 0.00 0.00 32 1010.4
20260906165329 94 201 0.0 1.0 0.00 0.00 0.00 32 1010.6
20260906165056 94 192 0.0 1.0 0.00 0.00 0.00 33 1010.4
20260906164329 94 190 0.0 0.0 0.00 0.00 0.00 33 1010.4
20260906163829 93 194 0.0 0.0 0.00 0.00 0.00 33 1010.4
20260906163330 93 181 0.0 0.0 0.00 0.00 0.00 34 1010.4
20260906162828 93 187 0.0 0.0 0.00 0.00 0.00 34 1010.4
20260906162552 92 203 0.0 0.0 0.00 0.00 0.00 34 1010.4
20260906161830 92 188 0.0 0.0 0.00 0.00 0.00 35 1010.4
20260906161557 92 174 0.0 0.0 0.00 0.00 0.00 35 1010.6
20260906160831 91 202 0.0 0.0 0.00 0.00 0.00 36 1010.6
20260906160329 91 213 0.0 0.0 0.00 0.00 0.00 36 1010.6
20260906155829 91 171 0.0 0.0 0.00 0.00 0.00 36 1010.7
20260906155329 91 166 0.0 0.0 0.00 0.00 0.00 37 1010.6
20260906154829 90 203 0.0 0.0 0.00 0.00 0.00 37 1010.6
20260906154329 90 191 0.0 0.0 0.00 0.00 0.00 38 1010.6
20260906153829 89 172 0.0 0.0 0.00 0.00 0.00 38 1010.4
20260906153552 89 172 0.0 0.0 0.00 0.00 0.00 39 1010.6
20260906152829 89 171 0.0 0.0 0.00 0.00 0.00 39 1010.6
20260906152329 88 121 0.0 0.0 0.00 0.00 0.00 39 1010.6
20260906151830 88 115 0.0 0.0 0.00 0.00 0.00 40 1010.6
20260906151329 87 115 0.0 0.0 0.00 0.00 0.00 42 1010.6
20260906150829 87 0 0.0 0.0 0.00 0.00 0.00 43 1010.4
20260906150329 86 0 0.0 0.0 0.00 0.00 0.00 43 1010.4
20260906145827 86 0 0.0 0.0 0.00 0.00 0.00 43 1010.4
20260906145322 86 0 0.0 0.0 0.00 0.00 0.00 44 1010.4
20260906145039 86 0 0.0 0.0 0.00 0.00 0.00 44 1010.4
20260906144315 85 0 0.0 0.0 0.00 0.00 0.00 44 1010.3
20260906143813 85 0 0.0 0.0 0.00 0.00 0.00 45 1010.3
20260906143313 84 0 0.0 0.0 0.00 0.00 0.00 45 1010.2
20260906142813 84 0 0.0 0.0 0.00 0.00 0.00 45 1010.2
20260906142311 83 0 0.0 0.0 0.00 0.00 0.00 46 1010.1
20260906141808 83 0 0.0 0.0 0.00 0.00 0.00 46 1010.1
20260906141309 82 0 0.0 0.0 0.00 0.00 0.00 47 1010.2
20260906141038 82 0 0.0 0.0 0.00 0.00 0.00 47 1010.1
20260906140307 82 0 0.0 0.0 0.00 0.00 0.00 46 1009.9
20260906135805 82 0 0.0 0.0 0.00 0.00 0.00 46 1009.9
20260906135305 82 0 0.0 0.0 0.00 0.00 0.00 46 1009.9
20260906134801 82 0 0.0 0.0 0.00 0.00 0.00 46 1009.8
20260906134301 82 0 0.0 0.0 0.00 0.00 0.00 46 1009.7
20260906133801 82 0 0.0 0.0 0.00 0.00 0.00 46 1009.6
20260906133301 82 0 0.0 0.0 0.00 0.00 0.00 46 1009.6
20260906133248 82 0 0.0 0.0 0.00 0.00 0.00 46 1009.6
20260906132306 82 0 0.0 0.0 0.00 0.00 0.00 45 1009.5
20260906131802 82 0 0.0 0.0 0.00 0.00 0.00 45 1009.5
20260906131301 82 0 0.0 0.0 0.00 0.00 0.00 45 1009.5
20260906130801 83 0 0.0 0.0 0.00 0.00 0.00 44 1009.4
20260906130301 83 0 0.0 0.0 0.00 0.00 0.00 43 1009.4
20260906125801 83 0 0.0 0.0 0.00 0.00 0.00 44 1009.3
20260906125305 83 0 0.0 0.0 0.00 0.00 0.00 44 1009.2
20260906124802 83 0 0.0 0.0 0.00 0.00 0.00 43 1009.3
20260906124300 83 0 0.0 0.0 0.00 0.00 0.00 43 1009.3
20260906123804 83 0 0.0 0.0 0.00 0.00 0.00 43 1009.3
20260906123301 83 0 0.0 0.0 0.00 0.00 0.00 43 1009.2
20260906122801 83 0 0.0 0.0 0.00 0.00 0.00 42 1009.1
20260906122305 84 0 0.0 0.0 0.00 0.00 0.00 43 1009.1
20260906122022 84 0 0.0 0.0 0.00 0.00 0.00 42 1009.1
20260906121303 84 0 0.0 0.0 0.00 0.00 0.00 42 1009.1
20260906120801 84 0 0.0 0.0 0.00 0.00 0.00 42 1009.2
20260906120302 84 0 0.0 0.0 0.00 0.00 0.00 42 1009.2
20260906115800 84 0 0.0 0.0 0.00 0.00 0.00 42 1009.2
20260906115300 84 0 0.0 0.0 0.00 0.00 0.00 41 1009.2
20260906114801 84 0 0.0 0.0 0.00 0.00 0.00 41 1009.2
20260906114300 84 0 0.0 0.0 0.00 0.00 0.00 41 1009.1
20260906113801 85 0 0.0 0.0 0.00 0.00 0.00 41 1009.2
20260906113300 85 0 0.0 0.0 0.00 0.00 0.00 41 1009.2
20260906112801 85 0 0.0 0.0 0.00 0.00 0.00 40 1009.2
20260906112301 85 0 0.0 0.0 0.00 0.00 0.00 40 1009.2
20260906111801 85 0 0.0 0.0 0.00 0.00 0.00 40 1009.2
20260906111301 85 0 0.0 0.0 0.00 0.00 0.00 40 1009.2
20260906111026 85 0 0.0 0.0 0.00 0.00 0.00 40 1009.1
20260906110301 85 0 0.0 0.0 0.00 0.00 0.00 40 1009.1
20260906105800 85 0 0.0 0.0 0.00 0.00 0.00 39 1009.2
20260906105300 85 0 0.0 0.0 0.00 0.00 0.00 39 1009.1
20260906104801 86 0 0.0 0.0 0.00 0.00 0.00 39 1009.1
20260906104302 86 0 0.0 0.0 0.00 0.00 0.00 39 1009.1
20260906103801 86 0 0.0 0.0 0.00 0.00 0.00 39 1009.1
20260906103302 86 0 0.0 0.0 0.00 0.00 0.00 39 1009.0
20260906103031 86 0 0.0 0.0 0.00 0.00 0.00 39 1009.0
20260906102301 86 0 0.0 0.0 0.00 0.00 0.00 38 1009.0
20260906102022 86 0 0.0 0.0 0.00 0.00 0.00 38 1009.0
20260906101301 86 0 0.0 0.0 0.00 0.00 0.00 38 1008.9
20260906100801 86 0 0.0 0.0 0.00 0.00 0.00 38 1009.0
20260906100526 86 0 0.0 0.0 0.00 0.00 0.00 38 1009.1
20260906095802 87 0 0.0 0.0 0.00 0.00 0.00 37 1009.1
20260906095531 87 0 0.0 0.0 0.00 0.00 0.00 37 1009.0
20260906094801 87 0 0.0 0.0 0.00 0.00 0.00 37 1009.1
20260906094304 87 0 0.0 0.0 0.00 0.00 0.00 37 1009.1
20260906093800 87 0 0.0 0.0 0.00 0.00 0.00 36 1009.0
20260906093301 87 0 0.0 0.0 0.00 0.00 0.00 36 1009.0
20260906093020 88 0 0.0 0.0 0.00 0.00 0.00 35 1009.0
20260906092305 88 0 0.0 0.0 0.00 0.00 0.00 35 1009.0
20260906091800 88 0 0.0 0.0 0.00 0.00 0.00 35 1009.0
20260906091301 88 0 0.0 0.0 0.00 0.00 0.00 35 1008.9
20260906090801 88 0 0.0 0.0 0.00 0.00 0.00 35 1008.9
20260906090301 88 0 0.0 0.0 0.00 0.00 0.00 35 1009.0
20260906085801 88 0 0.0 0.0 0.00 0.00 0.00 35 1009.0
20260906085521 89 0 0.0 0.0 0.00 0.00 0.00 35 1009.0
20260906084802 88 0 0.0 0.0 0.00 0.00 0.00 35 1009.0
20260906084301 88 0 0.0 0.0 0.00 0.00 0.00 35 1009.1
20260906084023 89 0 0.0 0.0 0.00 0.00 0.00 35 1009.1
20260906083301 89 0 0.0 0.0 0.00 0.00 0.00 35 1009.2
20260906083022 89 0 0.0 0.0 0.00 0.00 0.00 35 1009.2
20260906082521 89 0 0.0 0.0 0.00 0.00 0.00 34 1009.3
20260906081800 89 13 0.0 0.0 0.00 0.00 0.00 34 1009.4
20260906081301 89 13 0.0 0.0 0.00 0.00 0.00 34 1009.4
20260906081022 89 13 0.0 0.0 0.00 0.00 0.00 34 1009.4
20260906080301 89 13 0.0 0.0 0.00 0.00 0.00 34 1009.4
20260906075801 89 13 0.0 0.0 0.00 0.00 0.00 34 1009.5
20260906075301 89 13 0.0 0.0 0.00 0.00 0.00 34 1009.6
20260906074801 89 13 0.0 0.0 0.00 0.00 0.00 34 1009.6
20260906074301 89 12 0.0 0.0 0.00 0.00 0.00 33 1009.6
20260906074030 90 12 0.0 0.0 0.00 0.00 0.00 33 1009.6
20260906073301 90 12 0.0 0.0 0.00 0.00 0.00 33 1009.6
20260906072800 90 12 0.0 0.0 0.00 0.00 0.00 33 1009.6
20260906072305 90 22 0.0 0.0 0.00 0.00 0.00 32 1009.6
20260906071800 90 22 0.0 0.0 0.00 0.00 0.00 32 1009.7
20260906071301 90 22 0.0 0.0 0.00 0.00 0.00 32 1009.6
20260906070801 90 22 0.0 0.0 0.00 0.00 0.00 32 1009.7
20260906070301 90 22 0.0 0.0 0.00 0.00 0.00 32 1009.6
20260906065800 90 25 0.0 0.0 0.00 0.00 0.00 32 1009.7
20260906065305 90 27 0.0 0.0 0.00 0.00 0.00 32 1009.7
20260906064801 90 16 0.0 0.0 0.00 0.00 0.00 32 1009.7
20260906064521 90 302 0.0 0.0 0.00 0.00 0.00 33 1009.6
20260906063801 90 287 0.0 0.0 0.00 0.00 0.00 33 1009.7
20260906063520 90 287 0.0 0.0 0.00 0.00 0.00 33 1009.7
20260906063019 90 287 0.0 0.0 0.00 0.00 0.00 33 1009.6
20260906062251 90 287 0.0 0.0 0.00 0.00 0.00 33 1009.7
20260906061750 90 287 0.0 0.0 0.00 0.00 0.00 33 1009.7
20260906061252 90 287 0.0 0.0 0.00 0.00 0.00 33 1009.7
20260906060751 90 287 0.0 0.0 0.00 0.00 0.00 33 1009.6
20260906060248 90 287 0.0 0.0 0.00 0.00 0.00 32 1009.6
20260906060240 90 287 0.0 0.0 0.00 0.00 0.00 33 1009.7
20260906055245 90 287 0.0 0.0 0.00 0.00 0.00 33 1009.8
20260906054745 90 287 0.0 0.0 0.00 0.00 0.00 33 1009.8
20260906054244 90 287 0.0 0.0 0.00 0.00 0.00 33 1009.8
20260906053742 90 287 0.0 0.0 0.00 0.00 0.00 33 1009.8
20260906053241 91 287 0.0 0.0 0.00 0.00 0.00 33 1009.8
20260906053004 91 287 0.0 0.0 0.00 0.00 0.00 33 1009.8
20260906052241 91 287 0.0 0.0 0.00 0.00 0.00 32 1009.8
20260906051739 91 287 0.0 0.0 0.00 0.00 0.00 32 1009.9
20260906051238 91 287 0.0 0.0 0.00 0.00 0.00 32 1009.8
20260906050737 92 287 0.0 0.0 0.00 0.00 0.00 32 1009.8
20260906050237 92 287 0.0 0.0 0.00 0.00 0.00 32 1009.8
20260906045734 92 287 0.0 0.0 0.00 0.00 0.00 32 1009.8
20260906045236 92 287 0.0 0.0 0.00 0.00 0.00 32 1009.8
20260906045004 92 287 0.0 0.0 0.00 0.00 0.00 32 1009.8
20260906044234 92 287 0.0 0.0 0.00 0.00 0.00 31 1009.8
20260906043735 92 287 0.0 0.0 0.00 0.00 0.00 31 1009.8
20260906043233 92 287 0.0 0.0 0.00 0.00 0.00 31 1009.8
20260906042733 92 287 0.0 0.0 0.00 0.00 0.00 31 1009.7
20260906042454 92 287 0.0 0.0 0.00 0.00 0.00 31 1009.7
20260906041733 92 287 0.0 0.0 0.00 0.00 0.00 31 1009.8
20260906041233 92 287 0.0 0.0 0.00 0.00 0.00 31 1009.8
20260906040730 92 287 0.0 0.0 0.00 0.00 0.00 31 1009.9
20260906040453 92 287 0.0 0.0 0.00 0.00 0.00 31 1009.9
20260906035729 92 287 0.0 0.0 0.00 0.00 0.00 31 1009.9
20260906035458 92 287 0.0 0.0 0.00 0.00 0.00 31 1009.8
20260906034729 92 287 0.0 0.0 0.00 0.00 0.00 31 1009.8
20260906034229 92 287 0.0 0.0 0.00 0.00 0.00 31 1009.7
20260906033958 93 287 0.0 0.0 0.00 0.00 0.00 30 1009.6
20260906033230 93 254 0.0 0.0 0.00 0.00 0.00 30 1009.6
20260906032728 93 254 0.0 0.0 0.00 0.00 0.00 30 1009.5
20260906032449 93 254 0.0 0.0 0.00 0.00 0.00 30 1009.5
20260906031729 93 254 0.0 0.0 0.00 0.00 0.00 30 1009.5
20260906031228 93 275 0.0 0.0 0.00 0.00 0.00 30 1009.5
20260906030728 94 275 0.0 0.0 0.00 0.00 0.00 30 1009.5
20260906030229 94 275 0.0 0.0 0.00 0.00 0.00 30 1009.5
20260906025958 94 277 0.0 0.0 0.00 0.00 0.00 29 1009.4
20260906025229 94 303 0.0 0.0 0.00 0.00 0.00 29 1009.4
20260906024729 94 284 0.0 1.0 0.00 0.00 0.00 29 1009.4
20260906024228 94 300 0.0 1.0 0.00 0.00 0.00 29 1009.2
20260906023950 94 280 0.0 2.0 0.00 0.00 0.00 29 1009.2
20260906023225 94 261 0.0 2.0 0.00 0.00 0.00 29 1009.2
20260906022724 94 288 0.0 1.0 0.00 0.00 0.00 29 1009.1
20260906022224 94 310 0.0 1.0 0.00 0.00 0.00 28 1009.1
20260906021723 94 277 0.0 0.0 0.00 0.00 0.00 28 1009.1
20260906021217 95 288 0.0 4.0 0.00 0.00 0.00 28 1009.1
20260906020712 95 275 0.0 8.0 0.00 0.00 0.00 28 1009.2
20260906020205 95 291 0.0 8.0 0.00 0.00 0.00 28 1009.1
20260906015707 95 290 0.0 4.0 0.00 0.00 0.00 27 1009.1
20260906015651 95 264 0.0 2.0 0.00 0.00 0.00 27 1009.1
20260906014931 96 285 0.0 3.0 0.00 0.00 0.00 27 1009.1
20260906014205 96 301 0.0 3.0 0.00 0.00 0.00 27 1009.2
20260906013702 96 287 0.0 4.0 0.00 0.00 0.00 27 1009.2
20260906013201 96 259 0.0 4.0 0.00 0.00 0.00 27 1009.2
20260906012703 96 277 0.0 3.0 0.00 0.00 0.00 26 1009.3
20260906012202 96 292 0.0 3.0 0.00 0.00 0.00 26 1009.3
20260906011701 96 278 0.0 3.0 0.00 0.00 0.00 26 1009.4
20260906011201 97 281 0.0 4.0 0.00 0.00 0.00 26 1009.3
20260906010702 97 288 0.0 4.0 0.00 0.00 0.00 26 1009.3
20260906010201 97 295 0.0 3.0 0.00 0.00 0.00 26 1009.3
20260906005701 97 265 0.0 8.0 0.00 0.00 0.00 25 1009.3
20260906005201 97 305 0.0 8.0 0.00 0.00 0.00 25 1009.3
20260906004700 98 271 0.0 4.0 0.00 0.00 0.00 25 1009.2
20260906004202 98 279 0.0 1.0 0.00 0.00 0.00 26 1009.2
20260906003924 98 284 0.0 1.0 0.00 0.00 0.00 26 1009.2
20260906003159 98 261 0.0 1.0 0.00 0.00 0.00 26 1009.2
20260906002653 98 244 0.0 1.0 0.00 0.00 0.00 26 1009.3
20260906002147 98 255 0.0 4.0 0.00 0.00 0.00 26 1009.2
20260906001640 98 288 0.0 4.0 0.00 0.00 0.00 25 1009.2
20260906001133 98 253 0.0 10.0 0.00 0.00 0.00 25 1009.1
20260906000630 99 263 1.0 10.0 0.00 0.00 0.00 25 1009.2
20260906000130 99 265 0.0 7.0 0.00 0.00 0.00 25 1009.1
20260905235630 99 231 0.0 4.0 0.00 0.00 0.00 24 1009.0
20260905235130 100 247 0.0 4.0 0.00 0.00 0.00 24 1009.0
20260905234630 100 282 0.0 3.0 0.00 0.00 0.00 24 1009.1
20260905234353 100 246 0.0 4.0 0.00 0.00 0.00 24 1009.1
20260905233629 100 198 1.0 14.0 0.00 0.00 0.00 24 1009.1
20260905233130 100 234 0.0 14.0 0.00 0.00 0.00 24 1009.1
20260905232631 100 226 0.0 8.0 0.00 0.00 0.00 24 1009.2
20260905232130 100 232 1.0 17.0 0.00 0.00 0.00 24 1009.2
20260905231853 100 225 1.0 17.0 0.00 0.00 0.00 24 1009.2
20260905231130 99 205 1.0 7.0 0.00 0.00 0.00 24 1009.3
20260905230630 99 213 1.0 7.0 0.00 0.00 0.00 24 1009.3
20260905230355 99 229 0.0 6.0 0.00 0.00 0.00 24 1009.3
20260905225629 100 252 1.0 9.0 0.00 0.00 0.00 24 1009.2
20260905225130 100 219 1.0 9.0 0.00 0.00 0.00 24 1009.3
20260905224630 100 227 0.0 3.0 0.00 0.00 0.00 25 1009.3
20260905224128 100 219 0.0 3.0 0.00 0.00 0.00 25 1009.3
20260905223622 99 254 0.0 10.0 0.00 0.00 0.00 25 1009.4
20260905223116 100 240 0.0 10.0 0.00 0.00 0.00 25 1009.4
20260905222616 100 240 0.0 1.0 0.00 0.00 0.00 25 1009.4
20260905222113 100 282 0.0 9.0 0.00 0.00 0.00 25 1009.5
20260905221613 100 264 0.0 9.0 0.00 0.00 0.00 25 1009.6
20260905221114 100 265 0.0 6.0 0.00 0.00 0.00 26 1009.6
20260905220612 99 269 0.0 6.0 0.00 0.00 0.00 26 1009.7
20260905220110 100 261 0.0 7.0 0.00 0.00 0.00 26 1009.9
20260905215611 100 242 0.0 7.0 0.00 0.00 0.00 26 1009.9
20260905215336 100 256 0.0 14.0 0.00 0.00 0.00 26 1009.9
20260905214609 100 229 0.0 14.0 0.00 0.00 0.00 27 1009.9
20260905214108 100 261 0.0 6.0 0.00 0.00 0.00 27 1010.0
20260905213608 100 265 0.0 2.0 0.00 0.00 0.00 27 1010.1
20260905213108 100 254 0.0 2.0 0.00 0.00 0.00 27 1010.2
20260905212608 100 239 0.0 2.0 0.00 0.00 0.00 27 1010.2